CAPE
1576 1769 1838 1877 1918 1876 1787 1648 1631 1671 1809 2005 2073 2060 1959 1903 1901 1833 1829 1722 1551 1331 1121 1021 1012 741 643 637 730 816 889 799
1706 1817 1818 1819 1813 1839 1800 1716 1667 1686 1724 1940 1985 1857 1856 1872 1797 1703 1539 1532 1407 1181 963 916 868 616 681 659 646 685 735 661
1652 1994 1909 1795 1779 1814 1816 1776 1758 1735 1724 1805 1911 1807 1747 1828 1749 1643 1502 1489 1245 1038 876 838 727 566 532 652 624 583 551 491
1470 1854 1697 1537 1643 1761 1732 1770 1807 1763 1732 1752 1737 1751 1767 1745 1731 1670 1381 1278 1194 959 858 795 677 528 517 586 604 574 484 389
1289 1624 1632 1653 1506 1660 1894 1856 1970 1782 1738 1761 1662 1609 1694 1700 1695 1676 1339 1185 1084 968 819 729 683 512 464 459 506 505 429 402
1018 1213 1376 1371 1312 1732 2291 2634 2118 1777 1772 1782 1896 1792 1575 1652 1592 1617 1360 1187 923 924 756 656 661 536 454 468 514 483 430 346
1821 1128 1371 1411 1379 1316 1536 2100 2106 1633 1630 1679 1737 1634 1464 1553 1553 1536 1438 1180 892 789 734 520 592 572 487 445 407 345 265 226
2071 1984 1262 1237 1249 1234 1146 1376 1588 1737 1655 1620 1409 1407 1555 1800 1501 1522 1403 1218 1023 752 652 426 460 430 463 363 319 318 244 111
1561 2132 2170 1681 1195 1130 1148 1227 1420 1470 1097 1210 1158 1703 1791 1976 1487 1482 1386 1289 1081 881 658 536 482 291 290 342 404 309 331 74
0 1769 1855 2171 1873 1563 1158 1050 1067 881 754 913 1138 1362 1972 2127 1717 1435 1405 1290 1177 998 854 723 505 348 319 275 326 314 201 112
0 827 1913 1869 2150 2071 1538 1325 1139 1168 1051 1130 1118 1931 1815 1890 1725 1488 1332 1285 1153 1043 900 773 652 473 270 623 286 291 172 122
0 12 1576 1838 1920 2066 1923 1599 1458 1420 1287 1140 1193 1528 2032 2193 1506 1495 1363 1502 1078 1006 935 848 653 602 453 525 315 281 178 111
0 0 34 1798 1931 1773 1780 1749 1834 1652 1430 1052 1079 1241 1743 1825 1703 1341 1289 1222 1263 860 911 841 754 563 452 221 317 307 73 83
0 0 0 1172 1459 1867 1774 1763 1770 1485 1401 1334 976 1003 1184 1522 1588 1165 1204 1051 929 822 679 629 934 443 241 270 127 96 59 47
0 0 0 434 1397 1992 1913 1973 1673 1574 1491 1580 1466 1173 1058 1184 990 1082 1145 1030 986 863 725 593 873 317 150 135 77 70 12 10
0 2 0 459 1680 1923 1715 1621 1561 1260 1605 1702 1555 1430 1163 1044 1051 1087 1035 1117 1222 924 703 1101 590 301 80 181 139 11 2 0
40 17 79 0 1510 1757 1866 1722 1512 1288 1372 1592 1627 1618 1495 1480 1421 1347 1272 1303 1047 1113 901 1075 361 204 165 146 60 35 31 17
179 151 402 1 1394 1868 1889 1662 1493 1351 1335 1208 1932 1593 1487 1566 1625 1557 1437 1203 1165 1047 789 511 564 329 197 252 112 15 8 26
377 613 1045 603 1429 1911 1913 1631 1465 1311 1262 1254 1760 1863 1622 1205 1588 1640 1250 1123 1162 1060 610 757 602 475 405 310 129 68 21 12
504 985 1454 1563 1865 1870 1922 1699 1553 1374 1203 1028 1402 1352 1354 1062 1190 1293 1237 1102 1049 686 715 943 564 468 326 268 146 66 14 12
CIN
-362 -305 -266 -247 -235 -218 -205 -196 -164 -126 -84 -36 -21 -23 -26 -24 -15 -11 -11 -10 -13 -17 -33 -38 -30 -61 -57 -50 -37 -14 -21 -23
-302 -262 -259 -255 -245 -226 -213 -186 -154 -126 -102 -44 -22 -34 -25 -22 -23 -21 -17 -22 -27 -36 -46 -42 -43 -54 -43 -29 -34 -17 -16 -29
-316 -231 -230 -235 -223 -193 -176 -171 -152 -131 -103 -74 -16 -17 -22 -12 -24 -22 -22 -20 -39 -49 -49 -40 -43 -57 -55 -44 -36 -31 -33 -35
-353 -265 -282 -296 -253 -202 -177 -151 -150 -146 -127 -100 -73 -20 -19 -19 -22 -17 -26 -26 -38 -57 -44 -32 -36 -56 -57 -46 -39 -32 -43 -39
-284 -292 -308 -288 -289 -233 -166 -139 -117 -151 -139 -121 -106 -70 -8 -8 -6 -5 -21 -25 -42 -30 -36 -34 -40 -55 -65 -63 -40 -14 -39 -43
-345 -290 -281 -332 -329 -227 -130 -82 -116 -159 -154 -126 -90 -73 -58 -14 -7 -15 -30 -36 -66 -48 -49 -53 -41 -51 -53 -56 -43 -40 -40 -50
-185 -294 -271 -263 -292 -297 -238 -158 -151 -196 -168 -150 -126 -124 -109 -55 -18 -18 -34 -40 -80 -65 -48 -61 -42 -36 -35 -39 -46 -48 -38 -45
-131 -98 -236 -254 -257 -297 -322 -266 -236 -191 -181 -159 -176 -173 -122 -46 -46 -31 -45 -48 -71 -72 -67 -56 -52 -46 -38 -38 -50 -52 -55 -62
-268 -179 -84 -36 -50 -253 -272 -286 -237 -212 -268 -224 -210 -130 -113 -59 -70 -42 -52 -47 -53 -52 -51 -28 -24 -63 -51 -46 -38 -37 -60 -3
-0 -249 -211 -111 -58 -43 -30 -18 -232 -250 -268 -275 -201 -151 -92 -61 -58 -66 -39 -41 -36 -29 -32 -25 -28 -42 -38 -20 -3 -32 -0 -49
-0 -335 -204 -207 -118 -53 -35 -23 -25 -15 -10 -205 -222 -91 -106 -85 -66 -53 -46 -28 -33 -18 -22 -20 -18 -23 -63 -0 -65 -47 -44 -5
-0 -30 -203 -209 -191 -123 -59 -56 -46 -19 -27 -196 -215 -141 -75 -45 -94 -40 -36 -5 -28 -16 -8 -12 -17 -3 -12 -1 -34 -27 -0 -19
-0 -0 -215 -158 -140 -133 -122 -76 -60 -56 -47 -37 -201 -202 -105 -71 -68 -65 -24 -21 -11 -29 -4 -9 -4 -4 -7 -19 -0 -0 -9 -0
-0 -0 -0 -194 -143 -114 -137 -163 -79 -114 -130 -68 -197 -229 -190 -92 -78 -95 -45 -32 -33 -29 -31 -26 -1 -10 -20 -10 -9 -3 -14 -1
-0 -0 -0 -301 -134 -63 -56 -72 -94 -82 -112 -94 -113 -85 -210 -150 -156 -109 -64 -44 -31 -36 -36 -35 -3 -31 -27 -10 -11 -19 -0 -5
-0 -487 -0 -331 -149 -74 -49 -89 -130 -176 -158 -160 -135 -103 -127 -136 -147 -105 -73 -27 -5 -39 -39 -2 -11 -27 -64 -11 -7 -7 -0 -0
-249 -292 -341 -0 -160 -105 -86 -82 -154 -233 -200 -140 -130 -120 -97 -98 -76 -74 -40 -17 -7 -10 -15 -1 -37 -37 -29 -25 -6 -27 -0 -0
-199 -213 -355 -21 -189 -124 -118 -139 -171 -189 -178 -168 -82 -85 -89 -81 -67 -50 -36 -22 -8 -10 -14 -21 -16 -11 -20 -1 -3 -21 -1 -0
-119 -172 -166 -309 -148 -90 -90 -133 -152 -218 -198 -145 -96 -75 -95 -120 -69 -38 -46 -34 -7 -6 -22 -7 -6 -5 -3 -0 -1 -10 -6 -5
-108 -64 -58 -90 -67 -77 -72 -91 -109 -121 -147 -167 -77 -91 -117 -132 -88 -58 -33 -19 -8 -22 -9 -0 -13 -11 -5 -1 -4 -15 -9 -3
Wind_Speed
44 42 43 46 43 41 40 37 36 41 45 41 35 35 34 34 33 33 31 31 29 29 28 29 30 30 30 29 27 21 17 14
43 42 42 41 41 42 42 37 36 37 44 41 35 34 33 32 32 32 30 32 34 30 31 30 30 28 32 28 27 23 18 16
42 43 42 42 40 32 32 36 33 34 39 40 34 32 30 28 29 31 31 31 35 35 33 33 31 29 30 30 28 19 20 16
43 42 44 44 39 30 29 29 27 28 33 35 33 34 30 27 27 30 30 31 36 35 35 34 34 26 20 28 20 20 20 17
36 39 44 44 39 38 34 29 31 29 31 34 34 35 32 28 27 26 26 29 28 31 33 31 31 30 26 25 24 19 19 21
43 39 37 40 40 34 37 34 33 31 31 33 34 35 33 30 27 28 28 26 30 33 32 34 34 35 36 33 29 25 19 21
46 45 40 38 39 31 36 37 32 29 33 33 32 36 34 33 29 30 28 29 31 33 35 38 38 38 35 34 31 32 27 29
53 53 49 45 40 37 40 38 34 37 35 32 30 34 36 32 32 30 30 30 32 35 37 40 39 32 29 28 30 33 29 28
55 53 53 49 43 39 38 37 37 35 35 37 30 30 36 35 32 32 31 31 34 34 39 39 32 27 26 27 30 30 29 nan
nan 55 52 48 46 45 43 40 40 37 35 35 33 28 38 39 33 33 32 33 33 33 39 36 26 28 27 29 26 26 28 32
nan 59 57 50 43 48 45 42 43 41 37 33 35 33 36 39 37 35 34 33 33 34 36 30 26 30 29 27 27 26 27 33
nan nan 54 52 51 47 47 43 42 41 39 36 37 38 38 40 42 35 34 32 31 34 37 26 27 32 30 26 26 27 28 29
nan nan nan 58 52 43 47 35 37 40 40 38 38 41 41 39 40 37 33 31 30 35 35 29 30 34 34 27 27 25 nan nan
nan nan nan 52 55 44 41 37 33 39 41 44 42 40 40 40 40 36 31 32 31 34 36 29 31 33 32 32 26 nan nan nan
nan nan nan 52 47 54 49 49 47 44 41 43 42 39 40 39 37 34 32 34 33 34 35 34 33 31 29 33 nan nan nan nan
nan nan nan 54 50 51 41 38 40 33 34 38 40 42 40 40 36 35 33 36 32 32 34 33 36 31 nan 26 28 nan nan nan
nan nan nan nan 55 43 41 38 37 40 36 35 39 43 39 41 36 34 36 36 33 33 33 31 33 32 29 28 nan nan nan nan
64 68 58 nan 45 35 37 32 40 41 38 39 43 44 45 41 37 36 36 37 34 33 34 31 32 31 29 28 27 nan nan nan
56 62 63 52 41 38 32 31 30 31 34 36 43 44 47 40 38 35 36 35 33 34 34 29 31 32 29 28 26 nan nan nan
57 61 61 53 41 36 34 36 34 33 35 41 43 42 45 47 35 33 37 34 33 35 33 29 30 28 27 28 30 nan nan nan
Wind_Direction
281 282 284 290 295 292 296 296 299 297 297 301 297 297 298 302 306 311 314 310 315 313 317 319 314 313 313 317 314 299 281 267
278 281 277 280 288 291 291 293 294 293 294 297 295 294 295 297 300 306 307 309 315 315 318 320 317 312 310 309 307 301 278 269
279 282 280 278 280 281 289 294 297 291 292 297 292 282 286 289 292 300 302 310 312 318 320 317 314 311 311 307 304 290 283 267
287 289 288 285 282 281 288 285 283 283 290 292 285 277 277 279 284 295 299 305 309 315 315 315 310 306 293 302 288 294 268 273
272 288 291 293 287 278 275 282 277 273 284 289 288 278 272 272 270 277 281 296 296 304 305 310 309 302 292 286 282 274 262 263
276 273 284 292 289 297 291 291 292 282 278 283 282 280 276 270 269 271 277 284 291 296 301 306 305 301 295 287 275 268 265 262
278 277 279 281 286 294 298 302 291 277 271 274 276 277 275 273 268 273 276 281 291 294 302 305 303 302 292 283 269 260 260 254
276 281 279 273 278 285 292 293 289 271 265 263 272 272 274 273 272 275 277 285 291 298 306 306 311 302 295 285 277 269 263 264
269 276 279 278 275 274 280 283 281 278 272 261 265 271 275 273 271 274 279 283 291 299 302 305 302 298 296 292 283 278 264 nan
nan 267 270 276 279 278 274 268 265 263 266 264 265 268 268 270 270 272 277 284 292 303 306 311 301 301 301 296 289 275 262 261
nan 271 273 272 269 271 271 271 268 270 269 264 265 266 265 267 266 269 278 284 293 302 303 308 301 298 297 292 292 285 270 268
nan nan 272 271 264 261 262 258 262 269 271 265 269 264 265 263 264 272 277 283 294 300 308 300 293 297 294 290 288 286 276 274
nan nan nan 267 264 257 262 262 257 265 267 272 267 266 268 268 267 271 277 286 296 303 305 300 290 293 290 286 288 285 nan nan
nan nan nan 262 263 259 254 260 245 257 255 258 260 264 270 265 266 272 284 286 293 301 305 288 289 293 290 287 292 nan nan nan
nan nan nan 261 260 258 245 246 243 245 251 256 261 268 268 269 270 272 284 284 289 296 304 295 287 288 300 294 nan nan nan nan
nan nan nan 257 261 258 262 256 261 256 259 263 260 265 266 270 269 270 277 279 288 294 299 292 285 287 nan 304 279 nan nan nan
nan nan nan nan 257 259 256 254 259 253 247 263 259 259 260 264 263 269 274 278 286 291 295 288 282 286 286 283 nan nan nan nan
220 217 219 nan 251 254 257 263 262 248 257 256 249 251 249 255 260 268 274 277 283 286 292 287 283 285 280 288 290 nan nan nan
220 222 220 227 240 242 244 248 240 258 260 246 247 249 249 253 257 264 268 274 281 285 288 280 282 286 283 287 285 nan nan nan
217 220 223 217 225 235 235 229 233 237 243 240 237 235 240 245 256 266 270 278 282 284 279 274 281 281 282 285 284 nan nan nan